Wink, TX

2:28 PM CDT on June 25, 2017 (GMT -0500)
Winkler County

Weather History for KINK - June, 2013

Change the Weather History Date:

Friday, June 21, 2013

  Actual Average Record
Temperature  
Mean Temperature 86 °F -  
Max Temperature 100 °F 98 °F 114 °F (1960)
Min Temperature 73 °F 67 °F 55 °F (1973)
Cooling Degree Days 22    
Growing Degree Days 36 (Base 50)    
Moisture  
Dew Point 63 °F    
Average Humidity 52    
Maximum Humidity 79    
Minimum Humidity 23    
Precipitation  
Precipitation 0.00 in - - ()
Sea Level Pressure  
Sea Level Pressure 29.83 in    
Wind  
Wind Speed 12 mph (SSE)    
Max Wind Speed 24 mph    
Max Gust Speed 36 mph    
Visibility 10 miles    
Events Rain , Thunderstorm    
Averages and records for this station are not official NWS values.
T = Trace of Precipitation, MM = Missing Value Source: NWS Daily Summary

Daily Weather History Graph

Daily Weather History Graph

Search for Another Location

Airport or City:

Trip Planner

Search our weather history database for the weather conditions in past years. The results will help you decide how hot, cold, wet, or windy it might be!

Date:

Astronomy

Jun. 21, 2013 Rise Set
Actual Time 6:47 AM CDT 9:01 PM CDT
Civil Twilight 6:19 AM CDT 9:29 PM CDT
Nautical Twilight 5:45 AM CDT 10:04 PM CDT
Astronomical Twilight 5:07 AM CDT 10:41 PM CDT
Moon 7:18 PM CDT (6/21) 5:00 AM CDT (6/21)
Length of Visible Light 15h 10m
Length of Day
14h 13m
Waxing Gibbous, 95% of the Moon is Illuminated
Jun 21
Waxing Gibbous
Jun 23
Full
Jun 29
Last Quarter
Jul 8
New
Jul 15
First Quarter

Hourly Weather History & Observations

Time (CDT) Temp. Heat Index Dew Point Humidity Pressure Visibility Wind Dir Wind Speed Gust Speed Precip Events Conditions
12:20 AM 73.4 °F - 64.4 °F 73% 30.06 in 10.0 mi SW 11.5 mph - 0.00 in   Mostly Cloudy
12:53 AM 73.0 °F - 64.0 °F 73% 29.92 in 10.0 mi WSW 3.5 mph - 0.00 in   Partly Cloudy
1:53 AM 75.0 °F - 64.0 °F 69% 29.86 in 10.0 mi ESE 10.4 mph - N/A   Mostly Cloudy
2:53 AM 78.1 °F - 64.9 °F 64% 29.83 in 10.0 mi SE 10.4 mph - N/A   Clear
3:53 AM 78.1 °F - 64.9 °F 64% 29.82 in 10.0 mi SSE 10.4 mph - N/A   Clear
4:53 AM 77.0 °F - 64.9 °F 66% 29.82 in 10.0 mi SSE 8.1 mph - N/A   Clear
5:53 AM 75.0 °F - 64.9 °F 71% 29.81 in 10.0 mi SSE 9.2 mph - N/A   Clear
6:53 AM 73.0 °F - 66.0 °F 79% 29.84 in 10.0 mi SSE 6.9 mph - N/A   Clear
7:53 AM 73.9 °F - 66.0 °F 76% 29.85 in 10.0 mi SE 10.4 mph - N/A   Clear
8:53 AM 77.0 °F - 64.9 °F 66% 29.87 in 10.0 mi SSE 18.4 mph 26.5 mph N/A   Clear
9:53 AM 80.1 °F 81.9 °F 64.9 °F 60% 29.88 in 10.0 mi SSE 16.1 mph 23.0 mph N/A   Clear
10:53 AM 82.9 °F 84.6 °F 64.9 °F 54% 29.87 in 10.0 mi SE 17.3 mph 23.0 mph N/A   Clear
11:53 AM 87.1 °F 88.3 °F 64.0 °F 46% 29.88 in 10.0 mi SSE 15.0 mph 24.2 mph N/A   Clear
12:53 PM 91.0 °F 91.5 °F 62.1 °F 38% 29.85 in 10.0 mi South 16.1 mph - N/A   Clear
1:53 PM 93.0 °F 93.0 °F 61.0 °F 34% 29.82 in 10.0 mi South 10.4 mph 18.4 mph N/A   Clear
2:53 PM 97.0 °F 96.1 °F 57.9 °F 27% 29.78 in 10.0 mi South 12.7 mph 18.4 mph N/A   Clear
3:53 PM 99.0 °F 97.7 °F 55.9 °F 24% 29.75 in 10.0 mi South 11.5 mph 17.3 mph N/A   Clear
4:53 PM 100.0 °F 98.8 °F 55.9 °F 23% 29.73 in 10.0 mi South 15.0 mph 23.0 mph N/A   Partly Cloudy
5:53 PM 100.0 °F 99.7 °F 57.9 °F 25% 29.70 in 10.0 mi SE 20.7 mph 27.6 mph N/A   Partly Cloudy
6:51 PM 95.0 °F 95.2 °F 60.8 °F 32% 29.87 in 10.0 mi SSE 21.9 mph 35.7 mph N/A Thunderstorm Partly Cloudy
6:53 PM 95.0 °F 94.8 °F 60.1 °F 31% 29.73 in 10.0 mi SSE 24.2 mph 34.5 mph N/A Thunderstorm Partly Cloudy
7:15 PM 82.4 °F 84.6 °F 66.2 °F 58% 29.88 in 10.0 mi SSE 20.7 mph 35.7 mph 0.00 in Rain Light Rain
7:53 PM 87.1 °F 87.8 °F 63.0 °F 44% 29.74 in 10.0 mi SSE 19.6 mph 33.4 mph 0.00 in   Clear
8:53 PM 84.9 °F 85.4 °F 62.1 °F 46% 29.76 in 10.0 mi SE 18.4 mph 25.3 mph N/A   Clear
9:53 PM 82.9 °F 83.7 °F 62.1 °F 49% 29.77 in 10.0 mi SE 16.1 mph - N/A   Clear
10:53 PM 82.0 °F 82.7 °F 61.0 °F 49% 29.80 in 10.0 mi SE 15.0 mph 25.3 mph N/A   Clear
11:53 PM 81.0 °F 81.7 °F 61.0 °F 50% 29.83 in 10.0 mi SSE 16.1 mph 23.0 mph N/A   Clear